Baker, OR

3:04 AM PST on January 18, 2018 (GMT -0800)
Baker City Municipal

Weather History for KBKE - March, 2013

Change the Weather History Date:

Wednesday, March 6, 2013

  Actual Average Record
Temperature  
Mean Temperature 40 °F 35 °F  
Max Temperature 50 °F 47 °F 63 °F (2001)
Min Temperature 29 °F 23 °F 5 °F (1955)
Degree Days  
Heating Degree Days 25 30  
Month to date heating degree days 179 185  
Since 1 July heating degree days 5571 5705  
Cooling Degree Days 0 0  
Month to date cooling degree days 0 0  
Year to date cooling degree days 0 0  
Moisture  
Dew Point 29 °F    
Average Humidity 66    
Maximum Humidity 89    
Minimum Humidity 42    
Precipitation  
Precipitation 0.03 in 0.03 in 0.21 in (2000)
Month to date precipitation 0.05 0.15  
Year to date precipitation 1.32 1.53  
Sea Level Pressure  
Sea Level Pressure 29.73 in    
Wind  
Wind Speed 13 mph (SE)    
Max Wind Speed 31 mph    
Max Gust Speed 37 mph    
Visibility 9 miles    
Events Rain , Snow    
T = Trace of Precipitation, MM = Missing Value Source: NWS Daily Summary

Daily Weather History Graph

Daily Weather History Graph

Search for Another Location

Airport or City:

Trip Planner

Search our weather history database for the weather conditions in past years. The results will help you decide how hot, cold, wet, or windy it might be!

Date:

Astronomy

Mar. 06, 2013 Rise Set
Actual Time 6:19 AM PST 5:46 PM PST
Civil Twilight 5:50 AM PST 6:15 PM PST
Nautical Twilight 5:16 AM PST 6:49 PM PST
Astronomical Twilight 4:42 AM PST 7:23 PM PST
Moon 2:43 AM PST (3/6) 12:22 PM PST (3/6)
Length of Visible Light 12h 24m
Length of Day
11h 26m
Waning Crescent, 29% of the Moon is Illuminated
Mar 6
Waning Crescent
Mar 11
New
Mar 19
First Quarter
Mar 27
Full
Apr 2
Last Quarter

Hourly Weather History & Observations

Time (PST) Temp. Windchill Dew Point Humidity Pressure Visibility Wind Dir Wind Speed Gust Speed Precip Events Conditions
12:53 AM 30.9 °F 27.5 °F 26.1 °F 82% 29.76 in 10.0 mi WSW 3.5 mph - N/A   Clear
1:53 AM 35.1 °F 27.4 °F 26.1 °F 70% 29.73 in 10.0 mi ENE 10.4 mph - N/A   Clear
2:53 AM 37.9 °F 32.1 °F 27.0 °F 65% 29.71 in 10.0 mi East 8.1 mph - N/A   Partly Cloudy
3:53 AM 37.0 °F 29.3 °F 30.0 °F 76% 29.71 in 10.0 mi ESE 11.5 mph - N/A   Overcast
4:53 AM 37.0 °F 31.0 °F 32.0 °F 82% 29.69 in 10.0 mi East 8.1 mph - 0.00 in   Overcast
5:53 AM 36.0 °F 30.3 °F 30.0 °F 79% 29.68 in 10.0 mi East 6.9 mph - N/A   Overcast
6:53 AM 37.0 °F 28.1 °F 28.9 °F 73% 29.68 in 10.0 mi East 15.0 mph - N/A   Mostly Cloudy
7:53 AM 36.0 °F 28.0 °F 30.0 °F 79% 29.68 in 10.0 mi East 11.5 mph - 0.00 in   Overcast
8:05 AM 37.4 °F 29.8 °F 30.2 °F 75% 29.63 in 10.0 mi East 11.5 mph - N/A   Overcast
8:18 AM 37.4 °F 30.3 °F 30.2 °F 75% 29.63 in 10.0 mi East 10.4 mph - N/A   Overcast
8:40 AM 39.2 °F 30.5 °F 30.2 °F 70% 29.62 in 10.0 mi East 16.1 mph - N/A   Overcast
8:53 AM 39.9 °F 32.9 °F 30.0 °F 68% 29.65 in 10.0 mi ESE 11.5 mph - 0.00 in Rain Light Rain
9:53 AM 46.0 °F 39.6 °F 30.0 °F 54% 29.65 in 10.0 mi ESE 15.0 mph - N/A   Scattered Clouds
10:53 AM 44.1 °F 35.9 °F 30.9 °F 60% 29.67 in 10.0 mi SSE 19.6 mph 24.2 mph 0.00 in   Scattered Clouds
11:53 AM 46.0 °F 41.0 °F 26.1 °F 46% 29.66 in 10.0 mi SSE 10.4 mph 20.7 mph N/A   Partly Cloudy
12:53 PM 48.9 °F - 26.1 °F 41% 29.64 in 10.0 mi SSE 23.0 mph 27.6 mph N/A   Partly Cloudy
1:53 PM 46.0 °F 38.3 °F 30.0 °F 54% 29.66 in 10.0 mi SSE 20.7 mph - N/A   Overcast
2:53 PM 48.9 °F - 27.0 °F 43% 29.65 in 10.0 mi South 19.6 mph 24.2 mph 0.00 in   Mostly Cloudy
3:53 PM 39.0 °F 28.3 °F 28.9 °F 67% 29.71 in 10.0 mi SSW 24.2 mph 36.8 mph N/A   Scattered Clouds
4:53 PM 37.9 °F 27.9 °F 30.0 °F 73% 29.74 in 10.0 mi South 19.6 mph 28.8 mph 0.00 in   Mostly Cloudy
5:09 PM 35.6 °F 24.5 °F 30.2 °F 81% 29.73 in 2.5 mi SW 20.7 mph 32.2 mph 0.01 in Snow Light Snow
5:12 PM 33.8 °F 25.3 °F 30.2 °F 87% 29.74 in 1.8 mi WSW 11.5 mph 32.2 mph 0.02 in Snow Light Snow
5:27 PM 33.8 °F 30.8 °F 30.2 °F 87% 29.74 in 3.0 mi NNW 3.5 mph - 0.03 in Snow Light Snow
5:45 PM 33.8 °F 26.4 °F 30.2 °F 87% 29.74 in 10.0 mi SE 9.2 mph - 0.03 in   Overcast
5:53 PM 33.1 °F 25.5 °F 30.9 °F 92% 29.80 in 10.0 mi SSE 9.2 mph - 0.03 in   Mostly Cloudy
6:53 PM 33.1 °F 23.9 °F 30.0 °F 89% 29.85 in 10.0 mi NE 12.7 mph - N/A   Clear
7:53 PM 32.0 °F 28.7 °F 28.9 °F 88% 29.89 in 10.0 mi East 3.5 mph - N/A   Mostly Cloudy
8:53 PM 30.9 °F 25.2 °F 27.0 °F 85% 29.91 in 10.0 mi East 5.8 mph - N/A   Mostly Cloudy
9:53 PM 33.1 °F 26.9 °F 26.1 °F 75% 29.92 in 10.0 mi SE 6.9 mph - N/A   Clear
10:53 PM 32.0 °F 22.1 °F 26.1 °F 79% 29.94 in 10.0 mi South 13.8 mph - N/A   Clear
11:53 PM 30.9 °F 22.8 °F 24.1 °F 76% 29.96 in 10.0 mi South 9.2 mph - N/A   Clear